Wahpeton, MN

7:59 PM CST on December 06, 2019 (GMT -0600)
Stern

Weather History for KBWP - October, 2019

Change the Weather History Date:

Wednesday, October 2, 2019

  Actual Average (WUND) Record (WUND)
Temperature  
Mean Temperature 44 °F -  
Max Temperature 46 °F - - (-1)
Min Temperature 41 °F - - (-1)
Degree Days  
Heating Degree Days 22    
Moisture  
Dew Point 37 °F    
Average Humidity 80    
Maximum Humidity 93    
Minimum Humidity 71    
Precipitation  
Precipitation 0.00 in - - ()
Sea Level Pressure  
Sea Level Pressure 30.14 in    
Wind  
Wind Speed 9 mph ()    
Max Wind Speed 15 mph    
Max Gust Speed 17 mph    
Visibility 9.5 miles    
Events      
Averages and records for this station are not official NWS values.
T = Trace of Precipitation, MM = Missing Value Source: Averaged Metar Reports

Daily Weather History Graph

Daily Weather History Graph

Search for Another Location

Airport or City:

Astronomy

Oct. 02, 2019 Rise Set
Actual Time 7:26 AM CDT 7:04 PM CDT
Civil Twilight 6:56 AM CDT 7:34 PM CDT
Nautical Twilight 6:21 AM CDT 8:09 PM CDT
Astronomical Twilight 5:45 AM CDT 8:44 PM CDT
Moon 12:06 PM CDT (10/2) 9:44 PM CDT (10/2)
Length of Visible Light 12h 38m
Length of Day
11h 38m
Waxing Crescent, 20% of the Moon is Illuminated
Oct 2
Waxing Crescent
Oct 5
First Quarter
Oct 13
Full
Oct 21
Last Quarter
Oct 27
New

Hourly Weather History & Observations

Time (CDT) Temp. Windchill Dew Point Humidity Pressure Visibility Wind Dir Wind Speed Gust Speed Precip Events Conditions
12:15 AM 41.0 °F 34.3 °F 35.6 °F 81% 30.16 in 10.0 mi North 11.5 mph - N/A   Unknown
12:35 AM 41.0 °F 33.1 °F 35.6 °F 81% 30.16 in 10.0 mi North 15.0 mph - N/A   Unknown
12:55 AM 41.0 °F 34.3 °F 35.6 °F 81% 30.16 in 10.0 mi North 11.5 mph 17.3 mph N/A   Unknown
1:15 AM 41.0 °F 34.3 °F 35.6 °F 81% 30.16 in 10.0 mi North 11.5 mph - N/A   Unknown
1:35 AM 41.0 °F 34.7 °F 35.6 °F 81% 30.16 in 10.0 mi North 10.4 mph - N/A   Unknown
1:55 AM 41.0 °F 33.9 °F 35.6 °F 81% 30.17 in 10.0 mi North 12.7 mph - N/A   Unknown
2:15 AM 41.0 °F 33.9 °F 35.6 °F 81% 30.16 in 10.0 mi North 12.7 mph - N/A   Unknown
2:35 AM 41.0 °F 33.9 °F 35.6 °F 81% 30.17 in 10.0 mi North 12.7 mph 17.3 mph N/A   Unknown
2:55 AM 41.0 °F 35.2 °F 35.6 °F 81% 30.17 in 10.0 mi North 9.2 mph - N/A   Unknown
3:15 AM 41.0 °F 36.4 °F 35.6 °F 81% 30.18 in 10.0 mi North 6.9 mph - N/A   Unknown
3:35 AM 41.0 °F 35.8 °F 35.6 °F 81% 30.17 in 10.0 mi North 8.1 mph - N/A   Unknown
3:55 AM 41.0 °F 35.8 °F 35.6 °F 81% 30.19 in 10.0 mi North 8.1 mph - N/A   Unknown
4:15 AM 41.0 °F 38.0 °F 35.6 °F 81% 30.19 in 10.0 mi North 4.6 mph - N/A   Unknown
4:35 AM 41.0 °F 37.1 °F 35.6 °F 81% 30.19 in 10.0 mi NNE 5.8 mph - N/A   Unknown
4:55 AM 41.0 °F 36.4 °F 35.6 °F 81% 30.19 in 10.0 mi NNE 6.9 mph - N/A   Unknown
5:15 AM 41.0 °F 35.8 °F 35.6 °F 81% 30.18 in 10.0 mi NE 8.1 mph - N/A   Unknown
5:35 AM 42.8 °F 38.6 °F 35.6 °F 76% 30.19 in 10.0 mi NE 6.9 mph - N/A   Unknown
5:55 AM 42.8 °F 37.5 °F 35.6 °F 76% 30.19 in 10.0 mi NE 9.2 mph - N/A   Unknown
6:15 AM 42.8 °F 38.0 °F 35.6 °F 76% 30.19 in 10.0 mi NE 8.1 mph - N/A   Unknown
6:35 AM 42.8 °F 37.5 °F 35.6 °F 76% 30.17 in 10.0 mi NE 9.2 mph - N/A   Unknown
6:55 AM 42.8 °F 37.5 °F 35.6 °F 76% 30.18 in 10.0 mi NE 9.2 mph - N/A   Unknown
7:15 AM 42.8 °F 37.0 °F 35.6 °F 76% 30.18 in 10.0 mi NE 10.4 mph - N/A   Unknown
7:35 AM 42.8 °F 39.3 °F 35.6 °F 76% 30.18 in 10.0 mi NE 5.8 mph - N/A   Unknown
7:55 AM 42.8 °F 39.3 °F 35.6 °F 76% 30.19 in 10.0 mi NNE 5.8 mph - N/A   Unknown
8:15 AM 42.8 °F 39.3 °F 35.6 °F 76% 30.18 in 10.0 mi NNE 5.8 mph - N/A   Unknown
8:35 AM 42.8 °F 38.0 °F 35.6 °F 76% 30.17 in 10.0 mi NNE 8.1 mph - N/A   Unknown
8:55 AM 42.8 °F 36.6 °F 35.6 °F 76% 30.15 in 10.0 mi NNE 11.5 mph - N/A   Unknown
9:15 AM 42.8 °F 37.5 °F 35.6 °F 76% 30.16 in 10.0 mi NE 9.2 mph - N/A   Unknown
9:35 AM 42.8 °F 40.1 °F 35.6 °F 76% 30.19 in 10.0 mi North 4.6 mph - N/A   Unknown
9:55 AM 42.8 °F 40.1 °F 37.4 °F 81% 30.20 in 10.0 mi NE 4.6 mph - N/A   Unknown
10:15 AM 42.8 °F - 37.4 °F 81% 30.22 in 10.0 mi Calm Calm - N/A   Unknown
10:35 AM 44.6 °F - 37.4 °F 76% 30.21 in 10.0 mi Calm Calm - N/A   Unknown
10:55 AM 44.6 °F 41.4 °F 37.4 °F 76% 30.18 in 10.0 mi North 5.8 mph - N/A   Unknown
11:15 AM 44.6 °F 41.4 °F 37.4 °F 76% 30.18 in 10.0 mi NE 5.8 mph - N/A   Unknown
11:35 AM 44.6 °F 41.4 °F 37.4 °F 76% 30.17 in 10.0 mi NE 5.8 mph - N/A   Unknown
11:55 AM 44.6 °F 40.7 °F 37.4 °F 76% 30.17 in 10.0 mi NNE 6.9 mph - N/A   Unknown
12:15 PM 44.6 °F 41.4 °F 37.4 °F 76% 30.16 in 10.0 mi NNE 5.8 mph - N/A   Unknown
12:35 PM 44.6 °F 40.7 °F 37.4 °F 76% 30.16 in 10.0 mi NNE 6.9 mph - N/A   Unknown
12:55 PM 46.4 °F 41.1 °F 37.4 °F 71% 30.13 in 10.0 mi NE 11.5 mph 16.1 mph N/A   Unknown
1:15 PM 46.4 °F 41.1 °F 37.4 °F 71% 30.12 in 10.0 mi NE 11.5 mph 16.1 mph N/A   Unknown
1:35 PM 46.4 °F 41.5 °F 37.4 °F 71% 30.11 in 10.0 mi NE 10.4 mph - N/A   Unknown
1:55 PM 46.4 °F 42.4 °F 37.4 °F 71% 30.10 in 10.0 mi ENE 8.1 mph 16.1 mph N/A   Unknown
2:15 PM 46.4 °F 42.9 °F 37.4 °F 71% 30.12 in 10.0 mi ENE 6.9 mph - N/A   Unknown
2:35 PM 46.4 °F 43.5 °F 37.4 °F 71% 30.13 in 10.0 mi NE 5.8 mph - N/A   Unknown
2:55 PM 46.4 °F 41.9 °F 37.4 °F 71% 30.11 in 10.0 mi NE 9.2 mph - N/A   Unknown
3:15 PM 46.4 °F 41.9 °F 37.4 °F 71% 30.11 in 10.0 mi NNE 9.2 mph - N/A   Unknown
3:35 PM 46.4 °F 42.9 °F 37.4 °F 71% 30.11 in 10.0 mi North 6.9 mph - N/A   Unknown
3:55 PM 46.4 °F 42.9 °F 37.4 °F 71% 30.11 in 10.0 mi North 6.9 mph - N/A   Unknown
4:35 PM 44.6 °F 39.2 °F 37.4 °F 76% 30.09 in 10.0 mi North 10.4 mph - N/A   Unknown
4:55 PM 44.6 °F 38.8 °F 37.4 °F 76% 30.09 in 10.0 mi North 11.5 mph 16.1 mph N/A   Unknown
5:15 PM 44.6 °F 39.2 °F 37.4 °F 76% 30.09 in 10.0 mi North 10.4 mph - N/A   Unknown
5:35 PM 42.8 °F 36.6 °F 37.4 °F 81% 30.09 in 4.0 mi North 11.5 mph - N/A   Unknown
5:55 PM 42.8 °F 36.2 °F 37.4 °F 81% 30.09 in 10.0 mi North 12.7 mph - N/A   Unknown
6:15 PM 42.8 °F 37.0 °F 37.4 °F 81% 30.10 in 10.0 mi North 10.4 mph - N/A   Unknown
6:35 PM 42.8 °F 36.6 °F 37.4 °F 81% 30.09 in 7.0 mi North 11.5 mph - N/A   Unknown
6:55 PM 42.8 °F 36.6 °F 37.4 °F 81% 30.10 in 10.0 mi North 11.5 mph 16.1 mph N/A   Unknown
7:15 PM 42.8 °F 37.5 °F 37.4 °F 81% 30.10 in 7.0 mi North 9.2 mph - N/A   Unknown
7:35 PM 41.0 °F 33.9 °F 37.4 °F 87% 30.08 in 7.0 mi NNE 12.7 mph - N/A   Unknown
7:55 PM 41.0 °F 34.7 °F 37.4 °F 87% 30.09 in 10.0 mi NNE 10.4 mph - N/A   Unknown
8:15 PM 42.8 °F 38.0 °F 39.2 °F 87% 30.10 in 10.0 mi North 8.1 mph - N/A   Unknown
8:35 PM 41.0 °F 35.2 °F 39.2 °F 93% 30.11 in 10.0 mi North 9.2 mph - N/A   Unknown
8:55 PM 41.0 °F 35.2 °F 39.2 °F 93% 30.11 in 7.0 mi North 9.2 mph - N/A   Unknown
9:15 PM 41.0 °F 34.7 °F 39.2 °F 93% 30.10 in 7.0 mi North 10.4 mph - N/A   Unknown
9:35 PM 41.0 °F 34.7 °F 39.2 °F 93% 30.10 in 5.0 mi North 10.4 mph - N/A   Unknown
9:55 PM 41.0 °F 35.8 °F 39.2 °F 93% 30.11 in 7.0 mi North 8.1 mph - N/A   Unknown
10:15 PM 41.0 °F 35.8 °F 39.2 °F 93% 30.10 in 10.0 mi North 8.1 mph - N/A   Unknown
10:35 PM 41.0 °F 34.7 °F 39.2 °F 93% 30.10 in 10.0 mi North 10.4 mph - N/A   Unknown
10:55 PM 41.0 °F 36.4 °F 39.2 °F 93% 30.10 in 10.0 mi North 6.9 mph - N/A   Unknown
11:15 PM 41.0 °F 36.4 °F 39.2 °F 93% 30.10 in 10.0 mi North 6.9 mph - N/A   Unknown
11:35 PM 41.0 °F 35.8 °F 39.2 °F 93% 30.09 in 5.0 mi North 8.1 mph - N/A   Unknown
11:55 PM 41.0 °F 35.8 °F 39.2 °F 93% 30.09 in 5.0 mi North 8.1 mph - N/A   Unknown